TimeMDT,TemperatureF,Dew PointF,Humidity,Sea Level PressureIn,VisibilityMPH,Wind Direction,Wind SpeedMPH,Gust SpeedMPH,PrecipitationIn,Events,Conditions,WindDirDegrees,DateUTC
12:52 AM,37.0,34.0,89,30.07,10.0,WNW,6.9,-,N/A,,Clear,290,2013-10-12 06:52:00
1:52 AM,34.0,30.9,89,30.10,10.0,Calm,Calm,-,N/A,,Clear,0,2013-10-12 07:52:00
2:52 AM,33.1,30.9,92,30.11,10.0,SW,4.6,-,N/A,,Clear,230,2013-10-12 08:52:00
3:52 AM,30.0,28.9,96,30.13,10.0,WSW,5.8,-,N/A,,Clear,240,2013-10-12 09:52:00
4:52 AM,30.9,28.0,89,30.14,10.0,SW,5.8,-,N/A,,Clear,220,2013-10-12 10:52:00
5:52 AM,32.0,28.9,88,30.17,10.0,WSW,6.9,-,N/A,,Clear,240,2013-10-12 11:52:00
6:52 AM,30.9,28.0,89,30.19,10.0,Calm,Calm,-,N/A,,Clear,0,2013-10-12 12:52:00
7:52 AM,33.1,30.9,92,30.21,10.0,SSW,3.5,-,N/A,,Clear,210,2013-10-12 13:52:00
8:52 AM,39.9,35.1,83,30.22,10.0,SW,8.1,-,N/A,,Clear,230,2013-10-12 14:52:00
9:52 AM,44.1,34.0,68,30.22,10.0,WSW,6.9,-,N/A,,Clear,250,2013-10-12 15:52:00
10:52 AM,48.9,32.0,52,30.22,10.0,West,4.6,-,N/A,,Clear,270,2013-10-12 16:52:00
11:52 AM,51.1,32.0,48,30.21,10.0,Variable,3.5,-,N/A,,Clear,0,2013-10-12 17:52:00
12:52 PM,52.0,28.0,40,30.19,10.0,Variable,3.5,-,N/A,,Clear,0,2013-10-12 18:52:00
1:52 PM,55.0,28.0,35,30.17,10.0,Variable,3.5,-,N/A,,Clear,0,2013-10-12 19:52:00
2:52 PM,57.0,30.0,36,30.16,10.0,SW,5.8,-,N/A,,Clear,230,2013-10-12 20:52:00
3:52 PM,57.0,30.0,36,30.16,10.0,Variable,4.6,-,N/A,,Clear,0,2013-10-12 21:52:00
4:52 PM,55.9,34.0,44,30.16,10.0,South,5.8,-,N/A,,Clear,190,2013-10-12 22:52:00
5:52 PM,52.0,37.0,57,30.18,10.0,SSE,3.5,-,N/A,,Clear,150,2013-10-12 23:52:00
6:52 PM,44.1,36.0,73,30.21,10.0,East,5.8,-,N/A,,Clear,80,2013-10-13 00:52:00
7:52 PM,39.9,35.1,83,30.23,10.0,ENE,6.9,-,N/A,,Clear,70,2013-10-13 01:52:00
8:52 PM,43.0,36.0,76,30.22,10.0,ENE,10.4,-,N/A,,Overcast,60,2013-10-13 02:52:00
9:52 PM,43.0,36.0,76,30.21,10.0,ENE,11.5,-,N/A,,Overcast,70,2013-10-13 03:52:00
10:52 PM,44.1,35.1,71,30.20,10.0,ENE,9.2,-,N/A,,Overcast,60,2013-10-13 04:52:00
11:52 PM,45.0,35.1,68,30.19,10.0,ENE,8.1,-,N/A,,Overcast,70,2013-10-13 05:52:00